Weather Service Report


238 
ASUS46 KPQR 250310
RWROR 

OREGON REGIONAL WEATHER ROUNDUP
NATIONAL WEATHER SERVICE PORTLAND OR
800 PM PDT SAT SEP 24 2016

NOTE: "FAIR" INDICATES FEW OR NO CLOUDS BELOW 12,000 FEET WITH
NO SIGNIFICANT WEATHER AND/OR OBSTRUCTIONS TO VISIBILITY.

ORZ001>013-250400-
NORTHWEST OREGON

  
CITY           SKY/WX    TMP DP  RH WIND       PRES   REMARKS
ASTORIA        CLOUDY    62  55  77 CALM      30.31S                  
NEWPORT        CLEAR     55  52  88 CALM      30.34R                  
PORTLAND       PTCLDY    62  46  55 CALM      30.33R                  
VANCOUVER WA   CLEAR     60  45  57 CALM      30.32R                  
SCAPPOOSE      CLEAR     55  50  83 W3        30.32R                  
HILLSBORO      CLEAR     61  49  64 NE5       30.32R                  
AURORA         CLEAR     61  42  49 CALM      30.33R                  
MCMINNVILLE    CLEAR     62  44  51 CALM      30.33R                  
SALEM          CLEAR     61  45  55 W3        30.31S                  
CORVALLIS        N/A     59  45  58 NW6       30.33R                  
EUGENE         CLEAR     61  45  55 N6        30.31R                  
$$

ORZ021-028-250400-
SOUTHWEST OREGON

  
CITY           SKY/WX    TMP DP  RH WIND       PRES   REMARKS
NORTH BEND     CLEAR     59  54  82 N5        30.29R                  
BROOKINGS      CLEAR     63  57  81 CALM      30.20R                  
ROSEBURG       CLEAR     70  47  43 N5        30.28R                  
SEXTON SUMMIT  CLEAR     61  40  45 NE8       30.36R                  
MEDFORD        CLEAR     68  40  35 S8        30.26R                  
$$

ORZ014>016-041-250400-
COLUMBIA GORGE

  
CITY           SKY/WX    TMP DP  RH WIND       PRES   REMARKS
TROUTDALE      CLEAR     60  49  66 CALM      30.33R                  
THE DALLES     CLEAR     67  43  41 W5        30.29R                  
$$

ORZ029>031-041-044-049-050-061>064-502-503-505>511-250400-
EASTERN OREGON

  
CITY           SKY/WX    TMP DP  RH WIND       PRES   REMARKS
REDMOND        CLEAR     55  20  25 CALM      30.34R                  
BEND           CLEAR     57  25  28 CALM      30.36R                  
PRINEVILLE     CLEAR     54  21  28 CALM      30.35R                  
KLAMATH FALLS  CLEAR     55  39  54 CALM      30.35R                  
LAKEVIEW       CLEAR     54  21  28 N7        30.39R                  
HERMISTON      PTCLDY    54  41  61 E3        30.31R                  
PENDLETON      CLEAR     57  38  48 N3        30.33R                  
JOHN DAY       CLEAR     60  26  27 CALM      30.37R                  
MEACHAM        CLEAR     45  33  63 CALM      30.38R                  
LA GRANDE      CLEAR     57  28  33 W7        30.34R                  
BAKER CITY     CLEAR     50  32  50 W7        30.35R                  
BURNS          CLEAR     52  19  27 W8        30.36R                  
ROME             N/A     56  26  31 E8        30.34R                  
ONTARIO        CLEAR     57  34  41 CALM      30.31R                  
$$
  

Return to Home page


Western Regional Climate Center, wrcc@dri.edu